Blue Canyon, CA

2:32 AM PDT on March 29, 2017 (GMT -0700)
Blue Canyon-Nyack

Weather History for KBLU - October, 2011

Change the Weather History Date:

Tuesday, October 18, 2011

  Actual Average Record
Temperature  
Mean Temperature 65 °F -  
Max Temperature 71 °F 62 °F 80 °F (1974)
Min Temperature 60 °F 45 °F 25 °F (1949)
Growing Degree Days 15 (Base 50)    
Moisture  
Dew Point 37 °F    
Average Humidity 38    
Maximum Humidity 54    
Minimum Humidity 27    
Precipitation  
Precipitation 0.00 in - - ()
Sea Level Pressure  
Sea Level Pressure 30.00 in    
Wind  
Wind Speed 3 mph (SSE)    
Max Wind Speed 10 mph    
Max Gust Speed -    
Visibility 10 miles    
Events      
Averages and records for this station are not official NWS values.
T = Trace of Precipitation, MM = Missing Value Source: NWS Daily Summary

Daily Weather History Graph

Daily Weather History Graph

Search for Another Location

Airport or City:

Trip Planner

Search our weather history database for the weather conditions in past years. The results will help you decide how hot, cold, wet, or windy it might be!

Date:

Astronomy

Oct. 18, 2011 Rise Set
Actual Time 7:15 AM PDT 6:19 PM PDT
Civil Twilight 6:48 AM PDT 6:46 PM PDT
Nautical Twilight 6:17 AM PDT 7:18 PM PDT
Astronomical Twilight 5:46 AM PDT 7:49 PM PDT
Moon 11:07 PM PDT (10/18) 1:08 PM PDT (10/18)
Length of Visible Light 11h 58m
Length of Day
11h 04m
Waning Gibbous, 64% of the Moon is Illuminated
Oct 18
Waning Gibbous
Oct 19
Last Quarter
Oct 26
New
Nov 2
First Quarter
Nov 10
Full

Hourly Weather History & Observations

Time (PDT) Temp. Dew Point Humidity Pressure Visibility Wind Dir Wind Speed Gust Speed Precip Events Conditions
12:52 AM 61.0 °F 35.1 °F 38% 30.04 in 10.0 mi East 3.5 mph - N/A   Clear
1:52 AM 61.0 °F 34.0 °F 36% 30.04 in 10.0 mi East 3.5 mph - N/A   Clear
2:52 AM 60.1 °F 36.0 °F 41% 30.04 in 10.0 mi East 3.5 mph - N/A   Clear
3:52 AM 60.1 °F 37.9 °F 44% 30.02 in 10.0 mi East 3.5 mph - N/A   Clear
4:52 AM 61.0 °F 37.0 °F 41% 30.03 in 10.0 mi Calm Calm - N/A   Clear
5:52 AM 61.0 °F 32.0 °F 34% 30.04 in 10.0 mi Calm Calm - N/A   Clear
6:52 AM 61.0 °F 30.0 °F 31% 30.05 in 10.0 mi East 3.5 mph - N/A   Clear
7:52 AM 62.1 °F 28.9 °F 29% 30.06 in 10.0 mi Calm Calm - N/A   Clear
8:52 AM 64.0 °F 33.1 °F 31% 30.06 in 10.0 mi East 3.5 mph - N/A   Clear
9:52 AM 66.9 °F 35.1 °F 31% 30.04 in 10.0 mi Variable 3.5 mph - N/A   Clear
10:52 AM 69.1 °F 34.0 °F 27% 30.01 in 10.0 mi SSE 8.1 mph - N/A   Clear
11:52 AM 69.1 °F 37.0 °F 31% 30.02 in 10.0 mi South 8.1 mph - N/A   Clear
12:52 PM 70.0 °F 35.1 °F 28% 30.00 in 10.0 mi South 10.4 mph - N/A   Clear
1:52 PM 70.0 °F 39.0 °F 32% 29.99 in 10.0 mi SSW 9.2 mph - N/A   Clear
2:52 PM 70.0 °F 37.0 °F 30% 29.99 in 10.0 mi SSE 6.9 mph - N/A   Clear
3:52 PM 69.1 °F 37.9 °F 32% 29.97 in 10.0 mi SSW 4.6 mph - N/A   Clear
4:52 PM 68.0 °F 37.0 °F 32% 29.95 in 10.0 mi SW 3.5 mph - N/A   Clear
5:52 PM 64.9 °F 39.9 °F 40% 29.96 in 10.0 mi WSW 3.5 mph - N/A   Clear
6:52 PM 62.1 °F 45.0 °F 53% 29.96 in 10.0 mi Calm Calm - N/A   Clear
7:52 PM 61.0 °F 44.1 °F 54% 29.96 in 10.0 mi Calm Calm - N/A   Clear
8:52 PM 61.0 °F 42.1 °F 50% 29.95 in 10.0 mi Calm Calm - N/A   Clear
9:52 PM 61.0 °F 42.1 °F 50% 29.94 in 10.0 mi Calm Calm - N/A   Clear
10:52 PM 60.1 °F 39.9 °F 47% 29.93 in 10.0 mi Calm Calm - N/A   Clear
11:52 PM 60.1 °F 36.0 °F 41% 29.92 in 10.0 mi Calm Calm - N/A   Clear